QPF
0.00 0.00 0.00 0.00 0.00 0.00 0.00 0.00 0.00 0.00 0.00 0.00 0.00 0.00 0.00 0.00 0.00 0.00 0.00 0.00 0.00 0.00 0.00 0.00 0.00 0.00 0.01 0.05 0.02 0.01 0.00 0.00 0.00 0.00 0.00 0.00 0.00 0.00 0.00 0.00 0.00 0.00 0.00
0.00 0.00 0.00 0.00 0.00 0.00 0.00 0.00 0.00 0.00 0.00 0.00 0.00 0.00 0.00 0.00 0.00 0.00 0.00 0.00 0.00 0.00 0.00 0.00 0.00 0.00 0.00 0.01 0.02 0.01 0.00 0.00 0.01 0.01 0.02 0.01 0.00 0.00 0.00 0.00 0.00 0.00 0.00
0.00 0.00 0.00 0.00 0.00 0.00 0.00 0.00 0.00 0.00 0.00 0.00 0.00 0.00 0.00 0.00 0.00 0.00 0.00 0.00 0.00 0.00 0.00 0.00 0.00 0.00 0.00 0.00 0.00 0.00 0.00 0.01 0.01 0.01 0.02 0.01 0.01 0.00 0.00 0.00 0.00 0.00 0.00
0.00 0.00 0.00 0.00 0.00 0.00 0.00 0.00 0.00 0.00 0.00 0.00 0.00 0.00 0.00 0.00 0.00 0.00 0.00 0.00 0.00 0.00 0.00 0.00 0.00 0.00 0.00 0.00 0.00 0.00 0.00 0.00 0.00 0.01 0.01 0.01 0.00 0.00 0.01 0.00 0.00 0.00 0.00
0.00 0.00 0.00 0.00 0.00 0.00 0.00 0.00 0.00 0.00 0.00 0.00 0.00 0.00 0.00 0.00 0.00 0.00 0.00 0.00 0.00 0.00 0.00 0.00 0.00 0.00 0.00 0.00 0.00 0.00 0.00 0.00 0.00 0.01 0.01 0.01 0.00 0.00 0.00 0.00 0.01 0.00 0.00
0.00 0.00 0.00 0.00 0.00 0.00 0.00 0.00 0.00 0.00 0.00 0.00 0.00 0.00 0.00 0.00 0.00 0.00 0.00 0.00 0.00 0.00 0.00 0.00 0.00 0.00 0.00 0.00 0.00 0.00 0.00 0.00 0.00 0.00 0.00 0.00 0.00 0.00 0.00 0.01 0.00 0.00 0.00
0.00 0.00 0.00 0.00 0.00 0.00 0.00 0.01 0.00 0.00 0.00 0.00 0.00 0.00 0.00 0.00 0.00 0.00 0.00 0.00 0.00 0.00 0.00 0.00 0.00 0.00 0.00 0.00 0.00 0.00 0.00 0.00 0.00 0.00 0.00 0.00 0.00 0.00 0.00 0.00 0.00 0.00 0.00
0.00 0.00 0.00 0.00 0.00 0.00 0.00 0.00 0.00 0.00 0.00 0.01 0.01 0.01 0.01 0.00 0.00 0.00 0.00 0.00 0.00 0.00 0.00 0.00 0.00 0.00 0.00 0.00 0.00 0.00 0.00 0.00 0.00 0.00 0.00 0.00 0.00 0.00 0.00 0.00 0.00 0.00 0.00
0.00 0.00 0.00 0.00 0.00 0.00 0.00 0.00 0.00 0.00 0.00 0.01 0.03 0.14 0.15 0.07 0.01 0.00 0.00 0.00 0.00 0.00 0.00 0.00 0.00 0.00 0.00 0.00 0.00 0.00 0.00 0.00 0.00 0.00 0.00 0.00 0.00 0.00 0.00 0.00 0.00 0.00 0.01
0.00 0.00 0.00 0.00 0.00 0.00 0.00 0.00 0.00 0.00 0.00 0.01 0.01 0.04 0.10 0.17 0.15 0.02 0.00 0.00 0.00 0.00 0.00 0.00 0.00 0.00 0.00 0.00 0.00 0.00 0.00 0.00 0.00 0.00 0.00 0.00 0.00 0.00 0.00 0.00 0.00 0.00 0.01
0.00 0.00 0.00 0.00 0.00 0.00 0.00 0.00 0.00 0.00 0.00 0.00 0.00 0.01 0.05 0.10 0.13 0.06 0.01 0.00 0.00 0.00 0.00 0.00 0.00 0.00 0.00 0.00 0.00 0.00 0.00 0.00 0.00 0.00 0.00 0.00 0.00 0.00 0.00 0.00 0.00 0.00 0.00
0.00 0.00 0.00 0.00 0.00 0.00 0.00 0.00 0.00 0.00 0.00 0.00 0.00 0.00 0.01 0.04 0.08 0.10 0.05 0.02 0.00 0.00 0.00 0.00 0.00 0.00 0.00 0.00 0.00 0.00 0.00 0.00 0.00 0.00 0.00 0.00 0.00 0.00 0.00 0.00 0.00 0.00 0.00
0.00 0.00 0.00 0.00 0.00 0.00 0.00 0.00 0.00 0.00 0.00 0.00 0.00 0.00 0.00 0.00 0.02 0.10 0.09 0.05 0.03 0.00 0.00 0.00 0.00 0.00 0.00 0.00 0.00 0.00 0.00 0.00 0.00 0.00 0.00 0.00 0.00 0.00 0.00 0.00 0.00 0.00 0.00
0.05 0.01 0.00 0.00 0.00 0.00 0.00 0.00 0.00 0.00 0.00 0.00 0.01 0.00 0.00 0.00 0.00 0.03 0.06 0.04 0.03 0.01 0.01 0.00 0.00 0.00 0.00 0.00 0.00 0.00 0.00 0.00 0.00 0.00 0.00 0.00 0.00 0.00 0.00 0.00 0.00 0.00 0.00
0.03 0.02 0.00 0.00 0.00 0.00 0.00 0.00 0.00 0.00 0.00 0.00 0.01 0.02 0.02 0.03 0.06 0.08 0.04 0.01 0.02 0.06 0.07 0.02 0.00 0.00 0.00 0.00 0.00 0.00 0.00 0.00 0.00 0.00 0.00 0.00 0.00 0.00 0.00 0.00 0.00 0.00 0.00
0.00 0.00 0.00 0.00 0.00 0.00 0.00 0.00 0.00 0.00 0.00 0.00 0.00 0.00 0.00 0.01 0.04 0.06 0.05 0.07 0.09 0.10 0.06 0.02 0.01 0.00 0.00 0.00 0.00 0.00 0.00 0.00 0.00 0.00 0.00 0.00 0.00 0.00 0.00 0.00 0.00 0.00 0.00
0.00 0.00 0.00 0.00 0.00 0.00 0.00 0.00 0.00 0.00 0.00 0.00 0.00 0.00 0.00 0.00 0.00 0.00 0.02 0.06 0.10 0.15 0.11 0.04 0.05 0.05 0.04 0.03 0.01 0.00 0.00 0.00 0.00 0.00 0.00 0.00 0.00 0.00 0.00 0.00 0.00 0.00 0.00
0.00 0.00 0.00 0.00 0.00 0.00 0.00 0.00 0.00 0.00 0.00 0.00 0.00 0.00 0.00 0.00 0.00 0.00 0.00 0.01 0.01 0.03 0.03 0.03 0.06 0.11 0.09 0.07 0.09 0.04 0.00 0.00 0.00 0.00 0.00 0.00 0.00 0.00 0.00 0.00 0.00 0.00 0.00
0.00 0.00 0.00 0.00 0.00 0.00 0.00 0.00 0.00 0.00 0.00 0.00 0.00 0.00 0.00 0.00 0.00 0.00 0.00 0.00 0.00 0.01 0.03 0.05 0.06 0.09 0.10 0.09 0.10 0.10 0.09 0.10 0.07 0.03 0.01 0.00 0.00 0.00 0.00 0.00 0.00 0.00 0.00
0.00 0.00 0.00 0.00 0.00 0.00 0.00 0.00 0.00 0.00 0.00 0.00 0.00 0.00 0.00 0.00 0.00 0.00 0.00 0.00 0.00 0.00 0.00 0.05 0.08 0.10 0.17 0.34 0.44 0.46 0.36 0.27 0.17 0.09 0.03 0.00 0.00 0.00 0.00 0.00 0.00 0.00 0.00
0.00 0.00 0.00 0.00 0.00 0.00 0.00 0.00 0.01 0.01 0.01 0.00 0.00 0.00 0.00 0.00 0.00 0.00 0.00 0.00 0.00 0.00 0.00 0.00 0.01 0.01 0.01 0.04 0.09 0.16 0.21 0.18 0.16 0.12 0.05 0.01 0.00 0.00 0.00 0.00 0.00 0.00 0.00
0.00 0.00 0.00 0.00 0.00 0.00 0.00 0.00 0.00 0.00 0.01 0.00 0.01 0.00 0.00 0.00 0.00 0.00 0.00 0.00 0.00 0.00 0.00 0.00 0.00 0.00 0.00 0.00 0.00 0.00 0.02 0.03 0.02 0.02 0.02 0.03 0.02 0.01 0.00 0.00 0.00 0.00 0.00
0.00 0.00 0.00 0.00 0.00 0.00 0.00 0.00 0.00 0.00 0.00 0.00 0.00 0.00 0.00 0.00 0.00 0.00 0.00 0.00 0.00 0.00 0.00 0.00 0.00 0.00 0.00 0.00 0.00 0.00 0.00 0.00 0.01 0.02 0.02 0.05 0.04 0.02 0.01 0.02 0.02 0.01 0.00
0.00 0.00 0.00 0.00 0.00 0.00 0.00 0.00 0.00 0.00 0.00 0.00 0.00 0.00 0.00 0.00 0.00 0.00 0.00 0.00 0.00 0.00 0.00 0.00 0.00 0.00 0.00 0.00 0.00 0.00 0.00 0.00 0.00 0.01 0.04 0.09 0.12 0.15 0.16 0.15 0.09 0.03 0.01
0.00 0.00 0.00 0.00 0.00 0.00 0.00 0.00 0.00 0.00 0.00 0.00 0.00 0.00 0.00 0.00 0.00 0.00 0.00 0.00 0.00 0.00 0.00 0.01 0.00 0.00 0.00 0.00 0.00 0.00 0.00 0.00 0.00 0.00 0.01 0.02 0.03 0.06 0.10 0.12 0.09 0.08 0.07
0.00 0.00 0.00 0.00 0.00 0.00 0.00 0.00 0.00 0.00 0.00 0.00 0.00 0.00 0.00 0.00 0.00 0.00 0.00 0.00 0.00 0.00 0.00 0.01 0.01 0.04 0.07 0.05 0.04 0.04 0.04 0.04 0.03 0.03 0.02 0.02 0.03 0.06 0.09 0.14 0.16 0.17 0.15
MSLP
1011.75 1011.99 1012.29 1012.50 1013.06 1013.72 1013.83 1014.09 1014.28 1014.53 1014.62 1014.56 1014.55 1014.61 1014.90 1014.92 1015.13 1015.22 1015.38 1015.36 1015.27 1015.39 1015.31 1015.16 1015.11 1015.12 1014.94 1015.09 1015.16 1015.37 1016.21 1016.85 1018.10 1019.39 1019.78 1020.29 1020.63 1020.71 1020.91 1021.04 1020.74 1020.64 1021.22
1011.44 1011.80 1012.21 1012.39 1012.85 1013.54 1013.73 1013.98 1014.21 1014.13 1014.36 1014.41 1014.55 1014.84 1014.93 1015.07 1015.08 1015.17 1015.31 1015.39 1015.12 1014.99 1015.09 1015.02 1015.04 1014.77 1015.00 1015.02 1015.31 1015.68 1016.21 1016.98 1017.74 1018.93 1019.91 1020.40 1020.80 1020.82 1021.02 1021.26 1021.22 1020.84 1021.03
1011.30 1011.76 1012.23 1012.32 1012.76 1013.13 1013.54 1013.78 1013.97 1014.14 1014.11 1014.11 1014.31 1014.63 1014.73 1014.82 1015.08 1015.10 1015.21 1015.32 1015.33 1015.29 1015.19 1015.01 1014.94 1014.80 1014.99 1015.03 1015.04 1015.74 1016.51 1017.06 1017.53 1018.39 1019.55 1020.31 1020.88 1021.12 1021.31 1021.46 1021.64 1021.65 1021.57
1010.96 1011.40 1011.82 1012.03 1012.51 1012.84 1013.15 1013.31 1013.54 1013.94 1014.06 1013.96 1013.96 1014.17 1014.55 1014.92 1015.14 1015.27 1015.23 1015.38 1015.43 1015.42 1015.39 1015.21 1015.07 1014.94 1014.99 1015.38 1015.32 1015.78 1016.44 1017.10 1017.71 1018.35 1019.33 1020.00 1020.64 1021.14 1021.26 1021.44 1021.67 1021.91 1022.15
1010.71 1011.07 1011.52 1012.00 1012.46 1012.71 1013.05 1013.23 1013.42 1013.59 1014.00 1014.27 1014.35 1014.20 1014.38 1014.79 1015.00 1015.33 1015.34 1015.27 1015.36 1015.49 1015.43 1015.24 1015.39 1015.57 1015.65 1015.65 1015.68 1015.90 1016.38 1016.92 1017.56 1018.25 1018.94 1019.62 1020.16 1020.71 1020.87 1021.21 1021.51 1021.95 1022.11
1010.68 1011.12 1011.57 1011.89 1012.38 1012.61 1012.96 1013.13 1013.31 1013.57 1013.66 1013.98 1014.27 1014.31 1014.37 1014.47 1015.05 1015.28 1015.48 1015.40 1015.48 1015.61 1015.49 1015.47 1015.53 1015.89 1015.99 1016.12 1016.27 1016.28 1016.44 1016.84 1017.28 1017.82 1018.33 1018.83 1019.37 1019.86 1020.32 1020.81 1021.21 1021.40 1021.05
1010.73 1011.26 1011.66 1011.67 1011.97 1012.36 1012.75 1013.02 1013.29 1013.57 1013.94 1014.10 1014.18 1014.54 1014.65 1014.60 1015.12 1015.31 1015.52 1015.61 1015.70 1015.77 1015.74 1015.63 1015.57 1015.97 1016.01 1016.11 1016.50 1016.70 1016.84 1017.17 1017.33 1017.33 1017.67 1018.01 1018.54 1018.99 1019.59 1020.32 1020.51 1020.39 1019.70
1010.75 1011.10 1011.45 1011.59 1011.80 1012.20 1012.61 1012.88 1013.11 1013.40 1013.63 1013.94 1014.33 1014.45 1014.86 1014.94 1015.23 1015.43 1015.59 1015.71 1015.80 1015.93 1015.90 1015.87 1015.92 1016.14 1016.24 1016.23 1016.23 1016.35 1016.59 1016.98 1017.38 1017.35 1017.52 1017.85 1018.04 1018.40 1018.87 1019.37 1019.89 1020.03 1020.09
1010.74 1011.15 1011.32 1011.48 1011.74 1012.07 1012.47 1012.76 1013.02 1013.14 1013.42 1013.72 1014.21 1014.43 1014.49 1014.93 1015.31 1015.60 1015.73 1015.54 1015.62 1015.75 1016.02 1016.09 1016.15 1016.21 1016.55 1016.60 1016.30 1016.25 1016.55 1016.86 1017.77 1017.85 1017.75 1017.95 1018.11 1018.26 1018.43 1018.85 1019.13 1019.16 1019.13
1010.50 1010.72 1010.92 1011.17 1011.40 1011.88 1012.26 1012.65 1012.81 1013.03 1013.12 1013.45 1013.74 1014.09 1014.47 1014.65 1015.02 1015.35 1015.68 1015.26 1015.27 1015.41 1016.00 1016.19 1016.34 1016.41 1016.62 1016.74 1016.40 1016.34 1016.40 1016.76 1017.03 1017.47 1018.00 1018.28 1018.34 1018.66 1018.96 1018.32 1018.37 1018.35 1018.38
1010.32 1010.86 1011.05 1011.33 1011.48 1011.84 1012.23 1012.59 1012.66 1012.75 1012.86 1012.92 1013.22 1013.56 1014.13 1014.53 1014.96 1015.33 1015.38 1015.31 1015.13 1015.41 1015.63 1015.86 1015.97 1016.49 1016.77 1016.87 1016.79 1016.63 1016.50 1016.95 1017.30 1017.27 1017.44 1017.70 1017.89 1018.09 1018.19 1018.50 1018.47 1018.16 1017.88
1010.07 1010.86 1011.28 1011.58 1011.93 1012.27 1012.42 1012.65 1012.68 1012.77 1012.56 1012.58 1012.95 1013.07 1013.44 1013.96 1014.60 1014.85 1015.41 1015.39 1015.42 1015.56 1015.45 1015.54 1015.74 1016.19 1016.44 1016.60 1016.79 1016.83 1016.97 1017.05 1016.94 1016.95 1016.99 1017.09 1017.17 1017.43 1017.72 1018.20 1018.55 1018.49 1018.41
1010.82 1011.50 1011.60 1011.99 1012.57 1012.65 1012.78 1012.77 1012.73 1012.79 1012.64 1012.67 1012.74 1012.82 1013.03 1013.35 1013.70 1014.49 1014.98 1015.22 1015.28 1015.47 1015.32 1015.23 1015.56 1015.87 1016.20 1016.59 1016.68 1016.84 1016.97 1016.84 1016.56 1016.56 1016.50 1016.50 1016.73 1016.90 1017.46 1018.14 1018.52 1018.64 1018.80
1011.79 1011.94 1011.73 1012.11 1012.46 1012.45 1012.93 1012.74 1012.51 1012.71 1012.48 1012.68 1012.86 1012.96 1012.97 1013.10 1013.33 1013.76 1014.42 1014.90 1015.03 1015.26 1015.25 1015.20 1015.44 1015.64 1015.97 1016.05 1016.18 1016.50 1016.44 1016.26 1016.09 1016.00 1015.95 1016.04 1016.51 1017.06 1017.27 1017.40 1017.55 1017.84 1017.86
1011.78 1011.75 1011.81 1011.98 1012.38 1012.61 1012.82 1012.92 1012.55 1012.50 1012.41 1012.83 1013.07 1013.06 1013.32 1013.18 1013.26 1013.43 1013.72 1013.99 1014.20 1014.26 1014.77 1014.91 1014.98 1015.01 1015.23 1015.41 1015.41 1015.46 1015.50 1015.61 1015.80 1015.69 1015.69 1015.70 1016.08 1016.38 1016.57 1016.84 1016.96 1017.09 1017.19
1011.35 1011.62 1011.57 1011.71 1011.97 1012.40 1012.24 1012.32 1012.30 1012.74 1012.80 1013.19 1013.42 1013.67 1013.41 1013.45 1013.49 1013.37 1013.43 1013.36 1013.42 1013.80 1014.28 1014.30 1014.37 1014.43 1014.35 1014.40 1014.60 1014.56 1014.67 1014.79 1014.73 1014.96 1015.14 1015.18 1015.28 1015.48 1015.73 1016.20 1016.53 1016.62 1016.70
1010.49 1011.16 1011.73 1011.90 1011.78 1011.81 1011.53 1011.69 1011.54 1012.33 1012.33 1012.85 1013.29 1013.67 1013.50 1013.54 1013.43 1013.29 1013.11 1013.17 1013.23 1013.74 1013.57 1013.51 1013.70 1013.69 1013.53 1013.90 1013.82 1013.70 1013.69 1013.89 1014.22 1014.33 1014.53 1014.65 1014.76 1014.94 1015.16 1015.30 1015.56 1015.76 1015.97
1010.79 1011.10 1011.53 1011.42 1011.35 1011.34 1011.08 1011.04 1011.13 1011.56 1011.46 1011.84 1012.18 1012.73 1012.84 1012.85 1012.95 1012.97 1012.55 1012.59 1012.90 1013.25 1013.04 1012.98 1012.91 1012.82 1012.80 1013.00 1013.24 1012.91 1013.16 1013.14 1013.64 1013.89 1013.63 1013.69 1013.60 1013.77 1014.19 1014.59 1014.67 1014.79 1015.00
1010.89 1010.93 1011.26 1011.17 1011.10 1011.13 1011.01 1010.77 1010.82 1010.99 1010.75 1010.91 1010.77 1011.79 1012.01 1012.49 1012.43 1012.53 1012.77 1012.19 1011.99 1012.28 1012.40 1012.43 1012.48 1012.40 1012.43 1012.47 1012.80 1012.96 1013.11 1013.58 1013.45 1013.77 1013.72 1013.11 1012.75 1012.71 1012.90 1013.28 1013.59 1014.01 1014.19
1010.97 1011.12 1011.06 1010.80 1010.49 1010.66 1010.67 1010.48 1010.39 1010.29 1010.31 1010.15 1010.12 1010.35 1010.26 1011.16 1011.00 1010.97 1011.06 1011.35 1011.13 1011.25 1011.39 1011.63 1011.74 1012.05 1012.13 1012.18 1012.56 1012.57 1013.01 1013.03 1013.09 1013.26 1013.29 1012.89 1012.36 1012.13 1012.07 1012.28 1012.65 1012.69 1013.26
1011.02 1010.94 1011.01 1010.75 1010.61 1010.53 1010.34 1010.18 1009.84 1009.75 1009.63 1009.52 1009.57 1010.02 1010.95 1010.62 1010.23 1010.17 1010.21 1010.15 1010.29 1010.14 1010.56 1010.97 1011.29 1011.29 1011.57 1011.80 1011.91 1012.19 1012.10 1012.30 1012.39 1012.46 1012.77 1012.39 1012.02 1011.47 1011.53 1011.28 1011.69 1011.95 1012.03
1011.34 1010.97 1010.95 1010.88 1010.83 1010.88 1010.65 1009.98 1009.50 1009.53 1009.44 1009.45 1009.67 1010.32 1010.99 1010.03 1010.06 1010.16 1010.18 1009.96 1009.98 1009.86 1009.64 1009.92 1010.10 1010.49 1010.48 1010.41 1010.66 1011.15 1011.16 1011.01 1011.14 1011.63 1011.53 1011.62 1011.26 1011.55 1011.35 1011.17 1010.98 1010.93 1011.13
1011.45 1011.41 1011.34 1011.42 1011.18 1010.88 1010.23 1010.12 1009.91 1009.40 1009.16 1009.36 1009.75 1010.06 1010.02 1010.06 1010.23 1010.09 1010.28 1010.31 1010.50 1010.37 1010.25 1010.27 1010.20 1010.17 1010.02 1009.80 1009.83 1009.89 1009.77 1009.59 1009.65 1010.12 1010.71 1010.71 1010.86 1010.59 1011.00 1011.05 1011.29 1011.22 1010.77
1012.36 1011.81 1011.65 1011.54 1011.13 1010.56 1010.14 1010.09 1010.03 1010.20 1010.10 1010.23 1010.45 1010.56 1010.38 1010.45 1010.62 1011.03 1011.24 1011.17 1011.12 1011.00 1011.03 1010.75 1010.70 1010.81 1010.72 1010.23 1009.93 1009.89 1009.83 1009.83 1009.62 1009.60 1009.81 1010.06 1010.20 1010.42 1010.54 1010.22 1009.83 1010.40 1010.43
1012.10 1011.91 1011.72 1011.68 1011.35 1011.00 1010.71 1010.43 1010.45 1010.67 1010.84 1010.94 1011.33 1011.58 1011.45 1011.59 1011.56 1011.58 1011.67 1011.65 1011.77 1011.62 1012.01 1011.91 1012.03 1011.89 1011.90 1011.59 1011.15 1011.15 1011.24 1011.13 1010.63 1010.49 1009.90 1009.87 1009.87 1009.75 1009.81 1009.71 1009.64 1009.69 1010.18
1012.30 1012.12 1012.03 1012.02 1011.85 1011.77 1011.75 1011.67 1011.90 1012.10 1012.15 1012.27 1012.56 1012.83 1012.95 1013.03 1013.07 1012.63 1012.49 1012.61 1012.75 1012.63 1012.35 1012.38 1011.99 1011.91 1012.13 1011.87 1011.81 1011.56 1011.18 1011.12 1010.97 1010.71 1010.43 1010.01 1009.62 1009.48 1009.27 1009.20 1009.38 1009.11 1008.86
Thickness
5760 5758 5754 5749 5741 5730 5727 5725 5722 5719 5717 5718 5718 5716 5712 5712 5709 5710 5709 5712 5715 5716 5719 5722 5722 5725 5729 5729 5730 5729 5722 5716 5704 5695 5692 5687 5684 5683 5681 5680 5681 5681 5677
5762 5759 5752 5749 5741 5730 5726 5725 5723 5722 5719 5718 5715 5711 5709 5709 5710 5709 5708 5708 5712 5715 5717 5718 5719 5725 5724 5726 5725 5722 5719 5713 5705 5695 5688 5684 5680 5679 5677 5675 5674 5676 5674
5761 5755 5749 5746 5738 5732 5726 5724 5722 5720 5718 5718 5715 5709 5709 5708 5707 5708 5708 5706 5706 5707 5711 5714 5716 5719 5719 5722 5724 5718 5713 5709 5705 5697 5687 5681 5676 5674 5672 5670 5668 5668 5667
5762 5756 5749 5745 5738 5733 5729 5727 5723 5719 5716 5716 5714 5711 5707 5704 5702 5701 5703 5702 5703 5703 5705 5708 5711 5714 5716 5715 5717 5714 5709 5705 5699 5693 5685 5680 5674 5670 5669 5667 5663 5661 5658
5762 5757 5750 5745 5738 5733 5728 5725 5722 5719 5713 5709 5705 5706 5705 5701 5699 5696 5697 5699 5700 5698 5700 5704 5704 5704 5705 5708 5709 5708 5705 5701 5695 5688 5683 5678 5673 5668 5667 5664 5660 5655 5653
5759 5753 5748 5742 5735 5731 5725 5723 5719 5714 5712 5707 5701 5700 5699 5699 5692 5691 5691 5692 5693 5691 5694 5697 5699 5697 5697 5698 5698 5698 5698 5694 5690 5685 5682 5677 5673 5670 5666 5660 5656 5653 5655
5754 5748 5743 5741 5736 5729 5724 5720 5714 5709 5705 5701 5698 5694 5692 5690 5685 5685 5685 5686 5684 5684 5686 5690 5692 5690 5692 5693 5689 5687 5687 5685 5685 5684 5680 5677 5672 5669 5664 5656 5655 5655 5659
5749 5744 5741 5739 5735 5727 5721 5717 5711 5706 5702 5697 5691 5689 5685 5684 5679 5678 5679 5679 5678 5678 5680 5682 5684 5683 5684 5686 5687 5686 5684 5682 5678 5678 5676 5672 5669 5666 5662 5658 5653 5650 5648
5742 5737 5735 5733 5730 5724 5718 5712 5708 5705 5699 5694 5687 5684 5680 5676 5672 5669 5671 5675 5674 5674 5673 5674 5675 5677 5674 5675 5679 5679 5677 5675 5669 5669 5668 5666 5663 5661 5657 5654 5649 5648 5645
5738 5735 5733 5731 5727 5721 5715 5710 5707 5702 5698 5694 5687 5683 5676 5673 5668 5665 5665 5672 5671 5671 5668 5667 5665 5669 5666 5666 5671 5671 5670 5667 5666 5662 5659 5655 5653 5651 5648 5649 5648 5644 5642
5736 5729 5727 5725 5723 5718 5712 5708 5704 5700 5696 5694 5689 5683 5675 5669 5664 5660 5661 5665 5666 5664 5663 5662 5664 5659 5658 5658 5659 5662 5662 5659 5654 5655 5653 5650 5647 5645 5643 5639 5637 5638 5638
5730 5722 5719 5716 5712 5707 5704 5702 5701 5697 5695 5692 5687 5685 5680 5672 5663 5659 5655 5655 5657 5656 5656 5656 5656 5652 5651 5651 5650 5651 5647 5647 5649 5647 5645 5643 5642 5640 5637 5631 5627 5626 5624
5710 5707 5708 5704 5697 5696 5692 5691 5691 5691 5690 5687 5684 5683 5679 5675 5672 5661 5653 5651 5650 5650 5652 5653 5650 5646 5643 5641 5640 5640 5637 5641 5642 5639 5638 5638 5636 5635 5628 5622 5617 5615 5612
5688 5693 5697 5694 5690 5690 5685 5686 5688 5685 5686 5683 5679 5675 5675 5674 5670 5666 5659 5651 5648 5647 5647 5648 5647 5644 5640 5640 5638 5634 5636 5636 5636 5634 5633 5633 5629 5622 5619 5618 5615 5612 5609
5682 5685 5687 5687 5682 5680 5679 5676 5679 5680 5680 5676 5672 5669 5665 5667 5667 5663 5659 5656 5654 5652 5646 5645 5643 5642 5640 5637 5637 5636 5636 5633 5628 5628 5626 5625 5621 5618 5614 5611 5608 5605 5602
5678 5677 5680 5681 5679 5674 5675 5675 5673 5670 5667 5662 5658 5656 5659 5657 5656 5656 5656 5655 5652 5647 5643 5642 5640 5640 5639 5638 5634 5633 5632 5628 5627 5624 5620 5618 5615 5612 5609 5604 5599 5595 5591
5678 5674 5669 5667 5671 5669 5673 5672 5673 5667 5661 5657 5653 5650 5649 5650 5649 5648 5649 5649 5647 5642 5645 5642 5636 5635 5637 5631 5630 5630 5629 5625 5620 5618 5614 5610 5606 5603 5598 5596 5592 5588 5584
5664 5657 5660 5663 5665 5666 5669 5669 5668 5664 5665 5663 5656 5650 5648 5646 5644 5643 5646 5645 5642 5636 5639 5638 5637 5636 5634 5630 5625 5620 5620 5619 5611 5606 5606 5603 5601 5598 5591 5586 5584 5582 5578
5653 5654 5653 5656 5658 5657 5659 5661 5661 5659 5661 5658 5661 5651 5648 5640 5639 5636 5631 5641 5641 5633 5628 5627 5624 5624 5622 5621 5617 5613 5609 5602 5595 5591 5590 5593 5593 5592 5588 5584 5579 5570 5568
5642 5638 5641 5649 5654 5652 5652 5654 5654 5654 5654 5655 5655 5653 5654 5647 5648 5648 5640 5635 5634 5630 5626 5621 5618 5612 5610 5609 5606 5599 5594 5594 5588 5582 5579 5579 5581 5583 5580 5577 5573 5571 5563
5633 5636 5634 5641 5643 5643 5644 5645 5649 5649 5648 5650 5651 5646 5634 5641 5642 5639 5634 5631 5625 5624 5615 5608 5604 5603 5599 5596 5593 5591 5589 5584 5581 5578 5568 5574 5572 5575 5572 5570 5566 5562 5559
5624 5629 5631 5631 5630 5629 5631 5637 5642 5640 5640 5638 5635 5628 5616 5627 5625 5620 5614 5612 5610 5610 5611 5606 5602 5595 5592 5591 5587 5581 5579 5578 5576 5567 5566 5562 5563 5558 5557 5557 5557 5557 5553
5615 5616 5616 5615 5616 5618 5625 5625 5626 5631 5632 5628 5622 5617 5614 5610 5605 5603 5599 5596 5590 5589 5588 5585 5583 5582 5581 5579 5576 5574 5573 5572 5570 5564 5557 5556 5553 5553 5547 5543 5537 5538 5542
5598 5603 5605 5606 5609 5614 5616 5614 5613 5607 5609 5606 5603 5600 5598 5594 5589 5580 5575 5572 5570 5570 5568 5567 5565 5562 5560 5560 5560 5557 5555 5553 5552 5551 5548 5546 5543 5537 5532 5534 5532 5530 5531
5595 5596 5598 5597 5599 5602 5604 5606 5604 5598 5593 5589 5583 5578 5575 5571 5568 5564 5561 5558 5554 5550 5543 5541 5537 5536 5535 5533 5535 5534 5532 5532 5531 5528 5530 5530 5531 5530 5528 5527 5526 5524 5519
5586 5587 5587 5586 5586 5586 5584 5582 5578 5573 5570 5566 5561 5557 5552 5548 5545 5544 5542 5537 5531 5528 5526 5523 5523 5521 5517 5517 5516 5516 5517 5516 5514 5514 5513 5514 5516 5517 5517 5517 5515 5515 5515